| time (UTC) | temp F | wind direction | speed MPH | gust MPH | rain 1hr in | rain 24hr in | rain mn in | humidity % | barometer mb |
| 20260505152551 | 39 | 189 | 3.0 | 7.0 | 0.00 | 0.06 | 0.06 | 98 | 1012.1 |
| 20260505152047 | 39 | 98 | 0.0 | 2.0 | 0.00 | 0.06 | 0.06 | 98 | 1012.5 |
| 20260505151542 | 39 | 79 | 4.0 | 6.0 | 0.00 | 0.06 | 0.06 | 98 | 1012.5 |
| 20260505151040 | 39 | 197 | 0.0 | 8.0 | 0.00 | 0.06 | 0.06 | 98 | 1012.4 |
| 20260505150536 | 39 | 273 | 0.0 | 0.0 | 0.00 | 0.06 | 0.06 | 98 | 1012.5 |
| 20260505140502 | 40 | 197 | 0.0 | 0.0 | 0.00 | 0.06 | 0.06 | 99 | 1012.4 |
| 20260505124915 | 41 | 92 | 3.0 | 6.0 | 0.00 | 0.03 | 0.03 | 97 | 1011.5 |
| 20260505124412 | 41 | 86 | 3.0 | 6.0 | 0.05 | 0.03 | 0.03 | 97 | 1011.3 |
| 20260505123908 | 41 | 86 | 3.0 | 7.0 | 0.05 | 0.03 | 0.03 | 97 | 1011.4 |
| 20260505123405 | 41 | 86 | 5.0 | 7.0 | 0.00 | 0.02 | 0.02 | 97 | 1011.3 |
| 20260505122900 | 41 | 250 | 2.0 | 6.0 | 0.00 | 0.02 | 0.02 | 96 | 1011.1 |
| 20260505122358 | 41 | 89 | 3.0 | 5.0 | 0.00 | 0.02 | 0.02 | 96 | 1011.1 |
| 20260505121855 | 42 | 178 | 3.0 | 6.0 | 0.00 | 0.02 | 0.02 | 96 | 1011.1 |
| 20260505121352 | 41 | 202 | 0.0 | 0.0 | 0.00 | 0.02 | 0.02 | 95 | 1011.1 |
| 20260505120847 | 42 | 187 | 0.0 | 0.0 | 0.00 | 0.02 | 0.02 | 95 | 1011.3 |
| 20260505120344 | 42 | 265 | 0.0 | 0.0 | 0.00 | 0.02 | 0.02 | 95 | 1011.4 |
| 20260505115843 | 42 | 243 | 0.0 | 0.0 | 0.00 | 0.02 | 0.02 | 95 | 1011.1 |
| 20260505115340 | 42 | 246 | 0.0 | 0.0 | 0.00 | 0.02 | 0.02 | 94 | 1011.1 |
| 20260505114838 | 42 | 194 | 0.0 | 0.0 | 0.00 | 0.02 | 0.02 | 94 | 1011.1 |
| 20260505114334 | 42 | 187 | 8.0 | 10.0 | 0.00 | 0.02 | 0.02 | 93 | 1011.1 |
| 20260505113830 | 42 | 208 | 3.0 | 7.0 | 0.07 | 0.02 | 0.02 | 93 | 1011.1 |
| 20260505113327 | 43 | 164 | 3.0 | 3.0 | 0.14 | 0.02 | 0.02 | 93 | 1011.4 |
| 20260505112823 | 43 | 268 | 0.0 | 1.0 | 0.07 | 0.01 | 0.01 | 94 | 1011.4 |
| 20260505112321 | 43 | 275 | 0.0 | 0.0 | 0.00 | 0.00 | 0.00 | 94 | 1011.1 |
| 20260505111816 | 43 | 272 | 0.0 | 0.0 | 0.00 | 0.00 | 0.00 | 94 | 1011.4 |
| 20260505111312 | 42 | 288 | 0.0 | 0.0 | 0.00 | 0.00 | 0.00 | 93 | 1011.0 |
| 20260505110808 | 42 | 292 | 0.0 | 0.0 | 0.00 | 0.00 | 0.00 | 93 | 1011.4 |
| 20260505110305 | 42 | 286 | 0.0 | 0.0 | 0.00 | 0.00 | 0.00 | 93 | 1011.3 |
| 20260505101740 | 42 | 269 | 0.0 | 0.0 | 0.00 | 0.00 | 0.00 | 92 | 1011.0 |
| 20260505101235 | 43 | 272 | 0.0 | 0.0 | 0.00 | 0.00 | 0.00 | 92 | 1011.0 |
| 20260505100732 | 43 | 277 | 0.0 | 0.0 | 0.00 | 0.00 | 0.00 | 92 | 1011.1 |
| 20260505100229 | 43 | 285 | 0.0 | 0.0 | 0.00 | 0.00 | 0.00 | 91 | 1011.3 |
| 20260505095724 | 43 | 290 | 0.0 | 0.0 | 0.00 | 0.00 | 0.00 | 91 | 1011.1 |
| 20260505095222 | 43 | 290 | 0.0 | 0.0 | 0.00 | 0.00 | 0.00 | 90 | 1011.0 |
| 20260505094717 | 43 | 292 | 0.0 | 0.0 | 0.00 | 0.00 | 0.00 | 90 | 1011.5 |
| 20260505094214 | 43 | 290 | 1.0 | 1.0 | 0.00 | 0.00 | 0.00 | 88 | 1011.1 |
| 20260505093710 | 43 | 284 | 0.0 | 0.0 | 0.00 | 0.00 | 0.00 | 87 | 1011.3 |
| 20260505093208 | 43 | 284 | 0.0 | 0.0 | 0.00 | 0.00 | 0.00 | 87 | 1011.3 |
| 20260505092704 | 43 | 298 | 0.0 | 0.0 | 0.00 | 0.00 | 0.00 | 87 | 1011.1 |
| 20260505092204 | 43 | 301 | 0.0 | 0.0 | 0.00 | 0.00 | 0.00 | 86 | 1011.1 |
| 20260505091700 | 43 | 288 | 0.0 | 0.0 | 0.00 | 0.00 | 0.00 | 84 | 1011.3 |
| 20260505091158 | 42 | 312 | 0.0 | 0.0 | 0.00 | 0.00 | 0.00 | 84 | 1011.3 |
| 20260505090655 | 42 | 240 | 0.0 | 0.0 | 0.00 | 0.00 | 0.00 | 84 | 1011.5 |
| 20260505090154 | 42 | 273 | 0.0 | 0.0 | 0.00 | 0.00 | 0.00 | 85 | 1011.3 |
| 20260505085650 | 42 | 271 | 1.0 | 2.0 | 0.00 | 0.00 | 0.00 | 85 | 1011.4 |
| 20260505085149 | 41 | 279 | 0.0 | 0.0 | 0.00 | 0.00 | 0.00 | 85 | 1011.5 |
| 20260505084646 | 41 | 297 | 0.0 | 0.0 | 0.00 | 0.00 | 0.00 | 85 | 1011.3 |
| 20260505084144 | 41 | 284 | 0.0 | 0.0 | 0.00 | 0.00 | 0.00 | 85 | 1011.3 |
| 20260505083642 | 41 | 273 | 0.0 | 0.0 | 0.00 | 0.00 | 0.00 | 85 | 1011.1 |
| 20260505083138 | 41 | 274 | 1.0 | 1.0 | 0.00 | 0.00 | 0.00 | 84 | 1011.5 |
| 20260505082634 | 41 | 288 | 0.0 | 0.0 | 0.00 | 0.00 | 0.00 | 84 | 1011.1 |
| 20260505082131 | 41 | 288 | 0.0 | 0.0 | 0.00 | 0.00 | 0.00 | 84 | 1011.1 |
| 20260505081627 | 42 | 288 | 0.0 | 0.0 | 0.00 | 0.00 | 0.00 | 83 | 1011.1 |
| 20260505081125 | 42 | 290 | 0.0 | 0.0 | 0.00 | 0.00 | 0.00 | 84 | 1011.1 |
| 20260505080621 | 42 | 287 | 0.0 | 1.0 | 0.00 | 0.00 | 0.00 | 83 | 1011.3 |
| 20260505080117 | 42 | 292 | 3.0 | 3.0 | 0.00 | 0.00 | 0.00 | 83 | 1011.3 |
| 20260505075614 | 42 | 290 | 0.0 | 0.0 | 0.00 | 0.00 | 0.00 | 83 | 1011.5 |
| 20260505075110 | 42 | 280 | 0.0 | 0.0 | 0.00 | 0.00 | 0.00 | 82 | 1011.6 |
| 20260505074607 | 42 | 290 | 0.0 | 0.0 | 0.00 | 0.00 | 0.00 | 82 | 1011.5 |
| 20260505074104 | 41 | 276 | 0.0 | 0.0 | 0.00 | 0.00 | 0.00 | 82 | 1011.5 |
| 20260505073602 | 42 | 269 | 0.0 | 0.0 | 0.00 | 0.00 | 0.00 | 81 | 1011.5 |
| 20260505073100 | 44 | 278 | 1.0 | 1.0 | 0.00 | 0.00 | 0.00 | 81 | 1011.3 |
| 20260505072555 | 44 | 309 | 1.0 | 1.0 | 0.00 | 0.00 | 0.00 | 81 | 1011.5 |
| 20260505072052 | 45 | 312 | 0.0 | 1.0 | 0.00 | 0.00 | 0.00 | 80 | 1011.6 |
| 20260505071548 | 45 | 302 | 0.0 | 2.0 | 0.00 | 0.00 | 0.00 | 80 | 1011.5 |
| 20260505071046 | 45 | 285 | 0.0 | 0.0 | 0.00 | 0.00 | 0.00 | 79 | 1011.4 |
| 20260505070543 | 45 | 291 | 0.0 | 0.0 | 0.00 | 0.00 | 0.00 | 79 | 1011.5 |
| 20260505070039 | 45 | 266 | 0.0 | 2.0 | 0.00 | 0.00 | 0.00 | 79 | 1011.5 |
| 20260505065535 | 44 | 280 | 0.0 | 0.0 | 0.00 | 0.00 | 0.00 | 79 | 1011.1 |
| 20260505065032 | 43 | 275 | 0.0 | 0.0 | 0.00 | 0.00 | 0.00 | 79 | 1011.3 |
| 20260505064528 | 43 | 267 | 0.0 | 0.0 | 0.00 | 0.00 | 0.00 | 80 | 1011.1 |
| 20260505064027 | 42 | 82 | 5.0 | 8.0 | 0.00 | 0.00 | 0.00 | 80 | 1011.5 |
| 20260505063524 | 42 | 275 | 0.0 | 1.0 | 0.00 | 0.00 | 0.00 | 79 | 1011.1 |
| 20260505063020 | 44 | 296 | 0.0 | 0.0 | 0.00 | 0.00 | 0.00 | 79 | 1011.3 |
| 20260505062517 | 44 | 304 | 0.0 | 2.0 | 0.00 | 0.00 | 0.00 | 79 | 1011.3 |
| 20260505062014 | 44 | 226 | 0.0 | 2.0 | 0.00 | 0.00 | 0.00 | 79 | 1011.1 |
| 20260505061511 | 42 | 255 | 0.0 | 0.0 | 0.00 | 0.00 | 0.00 | 79 | 1011.3 |
| 20260505061009 | 41 | 296 | 0.0 | 0.0 | 0.00 | 0.00 | 0.00 | 78 | 1011.1 |
| 20260505060506 | 41 | 311 | 0.0 | 0.0 | 0.00 | 0.00 | 0.00 | 78 | 1011.4 |
| 20260505060002 | 42 | 314 | 0.0 | 0.0 | 0.00 | 0.00 | 0.00 | 77 | 1011.3 |
| 20260505055458 | 41 | 301 | 0.0 | 0.0 | 0.00 | 0.00 | 0.00 | 78 | 1011.3 |
| 20260505054955 | 41 | 296 | 0.0 | 0.0 | 0.00 | 0.00 | 0.00 | 78 | 1011.4 |
| 20260505054453 | 41 | 278 | 0.0 | 0.0 | 0.00 | 0.00 | 0.00 | 78 | 1010.9 |
| 20260505053950 | 41 | 264 | 0.0 | 0.0 | 0.00 | 0.00 | 0.00 | 77 | 1011.1 |
| 20260505053447 | 42 | 303 | 0.0 | 0.0 | 0.00 | 0.00 | 0.00 | 76 | 1011.3 |
| 20260505052944 | 42 | 280 | 0.0 | 0.0 | 0.00 | 0.00 | 0.00 | 75 | 1011.0 |
| 20260505052441 | 42 | 280 | 0.0 | 0.0 | 0.00 | 0.00 | 0.00 | 74 | 1011.4 |
| 20260505051938 | 43 | 273 | 0.0 | 0.0 | 0.00 | 0.00 | 0.00 | 73 | 1010.9 |
| 20260505051435 | 44 | 279 | 0.0 | 0.0 | 0.00 | 0.00 | 0.00 | 73 | 1011.4 |
| 20260505050933 | 44 | 280 | 0.0 | 0.0 | 0.00 | 0.00 | 0.00 | 72 | 1011.3 |
| 20260505050431 | 45 | 280 | 0.0 | 0.0 | 0.00 | 0.00 | 0.00 | 72 | 1011.5 |
| 20260505041359 | 47 | 303 | 1.0 | 2.0 | 0.00 | 0.00 | 0.00 | 68 | 1011.0 |
| 20260505040856 | 48 | 306 | 0.0 | 1.0 | 0.00 | 0.00 | 0.00 | 66 | 1010.8 |
| 20260505040353 | 47 | 302 | 0.0 | 0.0 | 0.00 | 0.00 | 0.00 | 68 | 1010.9 |
| 20260505035850 | 48 | 301 | 0.0 | 2.0 | 0.00 | 0.00 | 0.00 | 67 | 1011.0 |
| 20260505035345 | 50 | 290 | 0.0 | 2.0 | 0.00 | 0.00 | 0.00 | 64 | 1011.1 |
| 20260505034843 | 49 | 309 | 0.0 | 2.0 | 0.00 | 0.00 | 0.00 | 65 | 1011.0 |
| 20260505034339 | 48 | 313 | 1.0 | 1.0 | 0.00 | 0.00 | 0.00 | 66 | 1010.8 |
| 20260505033837 | 49 | 309 | 0.0 | 1.0 | 0.00 | 0.00 | 0.00 | 66 | 1010.8 |
| 20260505033334 | 49 | 8 | 4.0 | 5.0 | 0.00 | 0.00 | 0.00 | 66 | 1010.5 |
| 20260505032832 | 49 | 317 | 0.0 | 3.0 | 0.00 | 0.00 | 0.00 | 66 | 1010.5 |
| 20260505032328 | 48 | 247 | 1.0 | 6.0 | 0.00 | 0.00 | 0.00 | 66 | 1010.7 |
| 20260505031825 | 48 | 288 | 0.0 | 0.0 | 0.00 | 0.00 | 0.00 | 67 | 1010.5 |
| 20260505031321 | 49 | 288 | 0.0 | 0.0 | 0.00 | 0.00 | 0.00 | 66 | 1010.5 |
| 20260505030819 | 49 | 224 | 1.0 | 1.0 | 0.00 | 0.00 | 0.00 | 66 | 1010.7 |
| 20260505030315 | 49 | 299 | 0.0 | 0.0 | 0.00 | 0.00 | 0.00 | 67 | 1010.5 |
| 20260505025810 | 50 | 302 | 0.0 | 1.0 | 0.00 | 0.00 | 0.00 | 67 | 1010.3 |
| 20260505025308 | 50 | 276 | 0.0 | 1.0 | 0.00 | 0.00 | 0.00 | 65 | 1010.0 |
| 20260505024807 | 51 | 254 | 1.0 | 2.0 | 0.00 | 0.00 | 0.00 | 64 | 1010.3 |
| 20260505024304 | 51 | 97 | 2.0 | 5.0 | 0.00 | 0.00 | 0.00 | 64 | 1010.0 |
| 20260505023801 | 52 | 103 | 3.0 | 6.0 | 0.00 | 0.00 | 0.00 | 63 | 1010.0 |
| 20260505023258 | 52 | 90 | 2.0 | 3.0 | 0.00 | 0.00 | 0.00 | 62 | 1010.3 |
| 20260505022755 | 53 | 100 | 5.0 | 6.0 | 0.00 | 0.00 | 0.00 | 61 | 1010.0 |
| 20260505022252 | 53 | 2 | 4.0 | 8.0 | 0.00 | 0.00 | 0.00 | 61 | 1010.3 |
| 20260505021749 | 53 | 50 | 2.0 | 3.0 | 0.00 | 0.00 | 0.00 | 60 | 1010.3 |
| 20260505021246 | 53 | 144 | 2.0 | 3.0 | 0.00 | 0.00 | 0.00 | 61 | 1010.3 |
| 20260505020741 | 54 | 218 | 2.0 | 3.0 | 0.00 | 0.00 | 0.00 | 60 | 1010.0 |
| 20260505020237 | 54 | 258 | 3.0 | 7.0 | 0.00 | 0.00 | 0.00 | 59 | 1010.4 |
| 20260505015734 | 55 | 259 | 0.0 | 0.0 | 0.00 | 0.00 | 0.00 | 57 | 1010.3 |
| 20260505015231 | 55 | 277 | 0.0 | 3.0 | 0.00 | 0.00 | 0.00 | 56 | 1010.0 |
| 20260505014728 | 55 | 272 | 0.0 | 1.0 | 0.00 | 0.00 | 0.00 | 57 | 1010.4 |
| 20260505014226 | 55 | 281 | 0.0 | 0.0 | 0.00 | 0.00 | 0.00 | 58 | 1010.3 |
| 20260505013722 | 55 | 272 | 0.0 | 0.0 | 0.00 | 0.00 | 0.00 | 58 | 1010.3 |
| 20260505013219 | 55 | 121 | 1.0 | 2.0 | 0.00 | 0.00 | 0.00 | 59 | 1010.2 |
| 20260505012718 | 55 | 131 | 1.0 | 2.0 | 0.00 | 0.00 | 0.00 | 59 | 1010.3 |
| 20260505012215 | 54 | 101 | 3.0 | 3.0 | 0.00 | 0.00 | 0.00 | 59 | 1010.5 |
| 20260505011710 | 54 | 257 | 1.0 | 1.0 | 0.00 | 0.00 | 0.00 | 59 | 1010.5 |
| 20260505011208 | 54 | 124 | 2.0 | 3.0 | 0.00 | 0.00 | 0.00 | 59 | 1010.2 |
| 20260505010703 | 54 | 79 | 4.0 | 5.0 | 0.00 | 0.00 | 0.00 | 60 | 1010.4 |
| 20260505010200 | 54 | 295 | 0.0 | 0.0 | 0.00 | 0.00 | 0.00 | 60 | 1010.4 |
| 20260505005656 | 54 | 303 | 0.0 | 0.0 | 0.00 | 0.00 | 0.00 | 59 | 1010.4 |
| 20260505005153 | 54 | 290 | 0.0 | 0.0 | 0.00 | 0.00 | 0.00 | 59 | 1010.5 |
| 20260505004650 | 54 | 292 | 0.0 | 0.0 | 0.00 | 0.00 | 0.00 | 61 | 1010.4 |
| 20260505004146 | 54 | 290 | 0.0 | 0.0 | 0.00 | 0.00 | 0.00 | 61 | 1010.5 |
| 20260505003644 | 53 | 250 | 0.0 | 0.0 | 0.00 | 0.00 | 0.00 | 62 | 1010.5 |
| 20260505003142 | 53 | 82 | 5.0 | 8.0 | 0.00 | 0.00 | 0.00 | 62 | 1010.5 |
| 20260505002638 | 53 | 228 | 1.0 | 2.0 | 0.00 | 0.00 | 0.00 | 61 | 1010.8 |
| 20260505002136 | 52 | 307 | 3.0 | 3.0 | 0.00 | 0.00 | 0.00 | 62 | 1010.9 |
| 20260505001632 | 52 | 285 | 3.0 | 6.0 | 0.00 | 0.00 | 0.00 | 66 | 1011.1 |
| 20260505001130 | 52 | 294 | 3.0 | 6.0 | 0.00 | 0.00 | 0.00 | 66 | 1011.4 |
| 20260505000627 | 52 | 286 | 6.0 | 8.0 | 0.00 | 0.00 | 0.00 | 65 | 1011.6 |
| 20260505000125 | 52 | 284 | 2.0 | 6.0 | 0.00 | 0.00 | 0.00 | 67 | 1011.9 |
| 20260504235621 | 51 | 293 | 3.0 | 5.0 | 0.00 | 0.00 | 0.00 | 68 | 1012.0 |
| 20260504235117 | 51 | 288 | 4.0 | 11.0 | 0.00 | 0.00 | 0.00 | 68 | 1011.9 |
| 20260504234614 | 51 | 289 | 5.0 | 9.0 | 0.00 | 0.00 | 0.00 | 69 | 1011.7 |
| 20260504234112 | 51 | 312 | 6.0 | 10.0 | 0.00 | 0.00 | 0.00 | 69 | 1012.0 |
| 20260504233607 | 51 | 301 | 8.0 | 13.0 | 0.00 | 0.00 | 0.00 | 69 | 1012.0 |
| 20260504233104 | 51 | 287 | 7.0 | 10.0 | 0.00 | 0.00 | 0.00 | 70 | 1012.1 |
| 20260504232601 | 51 | 299 | 7.0 | 10.0 | 0.00 | 0.00 | 0.00 | 70 | 1011.6 |
| 20260504232059 | 52 | 274 | 9.0 | 10.0 | 0.00 | 0.00 | 0.00 | 64 | 1011.6 |
| 20260504231555 | 52 | 255 | 10.0 | 17.0 | 0.00 | 0.00 | 0.00 | 64 | 1011.6 |
| 20260504231051 | 52 | 265 | 7.0 | 13.0 | 0.00 | 0.00 | 0.00 | 67 | 1011.6 |
| 20260504230547 | 53 | 274 | 5.0 | 8.0 | 0.00 | 0.00 | 0.00 | 62 | 1011.7 |
| 20260504230047 | 53 | 285 | 7.0 | 11.0 | 0.00 | 0.00 | 0.00 | 61 | 1011.9 |
| 20260504225543 | 54 | 264 | 4.0 | 7.0 | 0.00 | 0.00 | 0.00 | 59 | 1011.7 |
| 20260504225040 | 55 | 220 | 8.0 | 13.0 | 0.00 | 0.00 | 0.00 | 56 | 1011.5 |
| 20260504224537 | 55 | 217 | 6.0 | 14.0 | 0.00 | 0.00 | 0.00 | 54 | 1011.5 |
| 20260504224034 | 56 | 225 | 11.0 | 15.0 | 0.00 | 0.00 | 0.00 | 52 | 1011.6 |
| 20260504223531 | 56 | 204 | 9.0 | 14.0 | 0.00 | 0.00 | 0.00 | 52 | 1011.4 |
| 20260504223027 | 57 | 194 | 10.0 | 14.0 | 0.00 | 0.00 | 0.00 | 52 | 1011.3 |
| 20260504222523 | 56 | 200 | 14.0 | 17.0 | 0.00 | 0.00 | 0.00 | 53 | 1011.5 |
| 20260504222021 | 56 | 214 | 9.0 | 16.0 | 0.00 | 0.00 | 0.00 | 55 | 1011.5 |
| 20260504221518 | 57 | 183 | 7.0 | 15.0 | 0.00 | 0.00 | 0.00 | 54 | 1011.4 |
| 20260504221015 | 58 | 197 | 7.0 | 16.0 | 0.00 | 0.00 | 0.00 | 51 | 1010.9 |
| 20260504220512 | 58 | 194 | 12.0 | 18.0 | 0.00 | 0.00 | 0.00 | 50 | 1011.3 |
| 20260504220009 | 59 | 205 | 7.0 | 14.0 | 0.00 | 0.00 | 0.00 | 50 | 1010.9 |
| 20260504215505 | 60 | 178 | 8.0 | 16.0 | 0.00 | 0.00 | 0.00 | 47 | 1011.0 |
| 20260504215003 | 60 | 174 | 9.0 | 15.0 | 0.00 | 0.00 | 0.00 | 47 | 1010.7 |
| 20260504214458 | 61 | 156 | 8.0 | 13.0 | 0.00 | 0.00 | 0.00 | 46 | 1010.7 |
| 20260504213955 | 61 | 133 | 7.0 | 13.0 | 0.00 | 0.00 | 0.00 | 46 | 1010.9 |
| 20260504213451 | 62 | 152 | 7.0 | 10.0 | 0.00 | 0.00 | 0.00 | 46 | 1010.5 |
| 20260504212949 | 64 | 202 | 4.0 | 6.0 | 0.00 | 0.00 | 0.00 | 42 | 1010.7 |
| 20260504212444 | 65 | 250 | 3.0 | 9.0 | 0.00 | 0.00 | 0.00 | 38 | 1010.7 |
| 20260504211942 | 66 | 280 | 2.0 | 5.0 | 0.00 | 0.00 | 0.00 | 37 | 1010.8 |
| 20260504211438 | 66 | 336 | 6.0 | 13.0 | 0.00 | 0.00 | 0.00 | 39 | 1010.7 |
| 20260504210936 | 66 | 273 | 6.0 | 8.0 | 0.00 | 0.00 | 0.00 | 38 | 1010.7 |
| 20260504210432 | 65 | 318 | 4.0 | 6.0 | 0.00 | 0.00 | 0.00 | 40 | 1011.0 |
| 20260504205929 | 64 | 325 | 7.0 | 10.0 | 0.00 | 0.00 | 0.00 | 39 | 1011.1 |
| 20260504205427 | 64 | 289 | 7.0 | 13.0 | 0.00 | 0.00 | 0.00 | 39 | 1011.0 |
| 20260504204925 | 64 | 318 | 7.0 | 9.0 | 0.00 | 0.00 | 0.00 | 41 | 1011.0 |
| 20260504204423 | 64 | 320 | 6.0 | 9.0 | 0.00 | 0.00 | 0.00 | 41 | 1011.3 |
| 20260504203922 | 63 | 315 | 5.0 | 14.0 | 0.00 | 0.00 | 0.00 | 41 | 1011.3 |
| 20260504203419 | 63 | 262 | 5.0 | 13.0 | 0.00 | 0.00 | 0.00 | 42 | 1011.3 |
| 20260504202915 | 63 | 332 | 9.0 | 14.0 | 0.00 | 0.00 | 0.00 | 40 | 1011.4 |
| 20260504202412 | 64 | 314 | 11.0 | 16.0 | 0.00 | 0.00 | 0.00 | 39 | 1011.6 |
| 20260504201909 | 64 | 314 | 9.0 | 13.0 | 0.00 | 0.00 | 0.00 | 40 | 1011.7 |
| 20260504201406 | 65 | 330 | 8.0 | 13.0 | 0.00 | 0.00 | 0.00 | 40 | 1011.5 |
| 20260504200903 | 64 | 5 | 9.0 | 20.0 | 0.00 | 0.00 | 0.00 | 39 | 1011.5 |
| 20260504200400 | 65 | 305 | 9.0 | 11.0 | 0.00 | 0.00 | 0.00 | 41 | 1011.5 |
| 20260504195856 | 65 | 330 | 7.0 | 11.0 | 0.00 | 0.00 | 0.00 | 42 | 1011.6 |
| 20260504195352 | 65 | 336 | 6.0 | 10.0 | 0.00 | 0.00 | 0.00 | 43 | 1011.6 |
| 20260504194849 | 64 | 0 | 10.0 | 11.0 | 0.00 | 0.00 | 0.00 | 43 | 1011.5 |
| 20260504194345 | 65 | 84 | 7.0 | 10.0 | 0.00 | 0.00 | 0.00 | 42 | 1011.7 |
| 20260504193841 | 65 | 326 | 8.0 | 18.0 | 0.00 | 0.00 | 0.00 | 41 | 1011.9 |
| 20260504193338 | 63 | 316 | 10.0 | 20.0 | 0.00 | 0.00 | 0.00 | 44 | 1011.7 |
| 20260504192837 | 62 | 90 | 1.0 | 2.0 | 0.00 | 0.00 | 0.00 | 41 | 1012.0 |
| 20260504192335 | 63 | 77 | 5.0 | 15.0 | 0.00 | 0.00 | 0.00 | 40 | 1011.9 |
| 20260504191833 | 62 | 336 | 11.0 | 14.0 | 0.00 | 0.00 | 0.00 | 41 | 1011.9 |
| 20260504191330 | 64 | 250 | 5.0 | 10.0 | 0.00 | 0.00 | 0.00 | 39 | 1012.1 |
| 20260504190825 | 64 | 271 | 5.0 | 7.0 | 0.00 | 0.00 | 0.00 | 40 | 1011.9 |
| 20260504190322 | 65 | 284 | 9.0 | 10.0 | 0.00 | 0.00 | 0.00 | 38 | 1012.1 |
| 20260504185819 | 65 | 230 | 8.0 | 13.0 | 0.00 | 0.00 | 0.00 | 39 | 1011.9 |
| 20260504185316 | 64 | 214 | 9.0 | 16.0 | 0.00 | 0.00 | 0.00 | 39 | 1012.1 |
| 20260504184812 | 64 | 192 | 13.0 | 15.0 | 0.00 | 0.00 | 0.00 | 38 | 1012.1 |
| 20260504184308 | 64 | 211 | 11.0 | 18.0 | 0.00 | 0.00 | 0.00 | 38 | 1011.9 |
| 20260504183803 | 65 | 242 | 8.0 | 10.0 | 0.00 | 0.00 | 0.00 | 41 | 1011.7 |
| 20260504183301 | 64 | 234 | 9.0 | 13.0 | 0.00 | 0.00 | 0.00 | 42 | 1011.9 |
| 20260504182759 | 63 | 226 | 7.0 | 10.0 | 0.00 | 0.00 | 0.00 | 45 | 1012.1 |
| 20260504182255 | 62 | 221 | 8.0 | 11.0 | 0.00 | 0.00 | 0.00 | 44 | 1012.2 |
| 20260504181753 | 62 | 221 | 7.0 | 9.0 | 0.00 | 0.00 | 0.00 | 45 | 1012.4 |
| 20260504181250 | 63 | 221 | 6.0 | 10.0 | 0.00 | 0.00 | 0.00 | 44 | 1012.1 |
| 20260504180749 | 62 | 198 | 6.0 | 11.0 | 0.00 | 0.00 | 0.00 | 44 | 1012.0 |
| 20260504180247 | 63 | 179 | 6.0 | 11.0 | 0.00 | 0.00 | 0.00 | 43 | 1011.7 |
| 20260504175745 | 62 | 220 | 6.0 | 9.0 | 0.00 | 0.00 | 0.00 | 41 | 1012.4 |
| 20260504175241 | 63 | 191 | 5.0 | 7.0 | 0.00 | 0.00 | 0.00 | 42 | 1012.4 |
| 20260504174739 | 63 | 140 | 3.0 | 8.0 | 0.00 | 0.00 | 0.00 | 39 | 1012.4 |
| 20260504174237 | 64 | 210 | 5.0 | 6.0 | 0.00 | 0.00 | 0.00 | 39 | 1012.2 |
| 20260504173733 | 64 | 288 | 4.0 | 8.0 | 0.00 | 0.00 | 0.00 | 39 | 1012.1 |
| 20260504173230 | 62 | 278 | 0.0 | 1.0 | 0.00 | 0.00 | 0.00 | 38 | 1012.5 |
| 20260504172727 | 63 | 264 | 4.0 | 17.0 | 0.00 | 0.00 | 0.00 | 39 | 1012.5 |
| 20260504172223 | 64 | 292 | 5.0 | 9.0 | 0.00 | 0.00 | 0.00 | 39 | 1012.7 |
| 20260504171720 | 62 | 236 | 5.0 | 7.0 | 0.00 | 0.00 | 0.00 | 43 | 1012.5 |
| 20260504171217 | 62 | 304 | 2.0 | 2.0 | 0.00 | 0.00 | 0.00 | 39 | 1012.8 |
| 20260504170714 | 61 | 309 | 4.0 | 6.0 | 0.00 | 0.00 | 0.00 | 41 | 1012.6 |
| 20260504170211 | 61 | 304 | 3.0 | 6.0 | 0.00 | 0.00 | 0.00 | 45 | 1012.7 |
| 20260504160129 | 56 | 209 | 3.0 | 3.0 | 0.00 | 0.00 | 0.00 | 52 | 1013.2 |